This demonstration page uses our WeatherBlox Daily Observations layout. Learn more.

Left ArrowRight Arrow

Hourly Observations for May 16, 2020

Temp ( °F °C ) Dew Point ( °F °C ) Humidity (%) Winds ( mph kmh ) Pressure ( in mb ) Visibility ( mi km ) Precip ( " mm )
12:53 am 00:53 Clear 65 18.3 52 11.1 63 63 E 7 11 29.67 1005 10 16 0.00 0.00
1:53 am 01:53 Clear 63 17.2 52 11.1 68 68 E 6 9 29.67 1005 10 16 0.00 0.00
2:53 am 02:53 Clear 60 15.6 52 11.1 75 75 NE 9 15 29.69 1005 10 16 0.00 0.00
3:53 am 03:53 Clear 63 17.2 52 11.1 68 68 E 15 24 29.70 1006 10 16 0.00 0.00
4:53 am 04:53 Clear 60 15.6 54 12.2 80 80 ENE 10 17 29.72 1006 10 16 0.00 0.00
5:23 am 05:23 Mostly Cloudy 60 15.6 54 12.2 80 80 E 9 15 29.78 1009 10 16 0.00 0.00
5:53 am 05:53 Partly Cloudy 60 15.6 54 12.2 80 80 E 8 13 29.72 1006 10 16 0.00 0.00
6:02 am 06:02 Mostly Cloudy 60 15.6 55 12.8 84 84 E 7 11 29.77 1008 10 16 0.00 0.00
6:11 am 06:11 Partly Cloudy 60 15.6 55 12.8 84 84 E 7 11 29.77 1008 10 16 0.00 0.00
6:23 am 06:23 Mostly Cloudy 60 15.6 55 12.8 84 84 E 7 11 29.78 1009 10 16 0.00 0.00
6:53 am 06:53 Mostly Cloudy 59 15 55 12.8 87 87 E 6 9 29.73 1007 10 16 0.00 0.00
7:53 am 07:53 Cloudy 61 16.1 55 12.8 81 81 E 3 6 29.76 1008 10 16 0.00 0.00
8:28 am 08:28 Partly Cloudy 62 16.7 55 12.8 78 78 S 5 7 29.80 1009 10 16 0.00 0.00
8:53 am 08:53 Mostly Sunny 63 17.2 55 12.8 76 76 SSW 3 6 29.77 1008 10 16 0.00 0.00
9:53 am 09:53 Sunny 68 20 55 12.8 63 63 WNW 6 9 29.78 1008 10 16 0.00 0.00
10:53 am 10:53 Sunny 71 21.7 55 12.8 57 57 VRB 5 7 29.78 1009 10 16 0.00 0.00
11:53 am 11:53 Sunny 76 24.4 55 12.8 48 48 NE 9 15 29.78 1009 10 16 0.00 0.00
12:53 pm 12:53 Sunny 79 26.1 53 11.7 41 41 VRB 7 11 29.77 1008 10 16 0.00 0.00
1:53 pm 13:53 Sunny 82 27.8 51 10.6 34 34 VRB 7 11 29.75 1007 10 16 0.00 0.00
2:53 pm 14:53 Sunny 85 29.4 51 10.6 31 31 NE 8 13 29.73 1007 10 16 0.00 0.00
3:53 pm 15:53 Sunny 87 30.6 49 9.4 27 27 ESE 9 15 29.70 1006 10 16 0.00 0.00
4:53 pm 16:53 Sunny 87 30.6 48 8.9 26 26 VRB 3 6 29.68 1005 10 16 0.00 0.00
5:53 pm 17:53 Sunny 86 30 50 10 29 29 SE 12 19 29.68 1005 10 16 0.00 0.00
6:53 pm 18:53 Sunny 86 30 49 9.4 28 28 ESE 12 19 29.70 1006 10 16 0.00 0.00
7:53 pm 19:53 Sunny 84 28.9 48 8.9 29 29 E 14 22 29.70 1006 10 16 0.00 0.00
8:53 pm 20:53 Clear 81 27.2 50 10 34 34 E 13 20 29.73 1007 10 16 0.00 0.00
9:53 pm 21:53 Clear 76 24.4 54 12.2 47 47 E 12 19 29.75 1008 10 16 0.00 0.00
10:53 pm 22:53 Clear 74 23.3 54 12.2 50 50 E 13 20 29.78 1009 10 16 0.00 0.00
11:53 pm 23:53 Clear 71 21.7 54 12.2 55 55 ESE 13 20 29.80 1009 10 16 0.00 0.00

Powered by AerisWeather